Climatologie pour Saint-Brevin les Pins
 
Jour • Résumé pour novembre 17, 2018 Système :  Métrique    Anglais   Mixte
« - 1 jour
+ 1 jour »
Jour Semaine Mois Année Personnalisé
  Actuellement : Maximum : Minimum : Moyenne :
Température sous abri : 7.1 °C 10.2 °C 7.1 °C 8.6 °C
Point de rosée : 6.6 °C 9.7 °C 6.6 °C 8.2 °C
Humidité : 97% 98% 97% 97%
Vitesse du vent : 16.1km/h 20.9km/h 0km/h 6km/h
Rafale : 24.1km/h 24.1km/h - -
Direction NE - - East
Pression : 1018.2 hPa 1020.5 hPa 1018.2 hPa -
Précipitations : 0 mm      
Historical Graphs
 
 
Tableau de données pour novembre 17, 2018
Heure Tempé Pt rosée Pression Vent Vitesse Rafale Humidité Taux pluie (/hr) Soleil
00:00 10.2 °C 9.7 °C 1020.5 hPa East 3.2 km/h 14.5 km/h 97% 0 mm 0.00 W/m2
00:05 10.2 °C 9.7 °C 1020.5 hPa Calm   16.1 km/h 97% 0 mm 0.00 W/m2
00:10 10.2 °C 9.7 °C 1020.5 hPa Calm   16.1 km/h 97% 0 mm 0.00 W/m2
00:20 10.2 °C 9.7 °C 1020.5 hPa NE 1.6 km/h 17.7 km/h 97% 0 mm 0.00 W/m2
00:25 10.2 °C 9.7 °C 1020.5 hPa East 6.4 km/h 16.1 km/h 97% 0 mm 0.00 W/m2
00:30 10.2 °C 9.7 °C 1020.5 hPa East 1.6 km/h 17.7 km/h 97% 0 mm 0.00 W/m2
00:35 10.2 °C 9.7 °C 1020.5 hPa East 1.6 km/h 17.7 km/h 97% 0 mm 0.00 W/m2
00:40 10.2 °C 9.7 °C 1020.2 hPa East 3.2 km/h 17.7 km/h 97% 0 mm 0.00 W/m2
00:45 10.2 °C 9.7 °C 1020.5 hPa ENE 6.4 km/h 17.7 km/h 97% 0 mm 0.00 W/m2
00:50 10.2 °C 9.7 °C 1020.5 hPa Calm   16.1 km/h 97% 0 mm 0.00 W/m2
00:55 10.2 °C 9.7 °C 1020.5 hPa SE 8 km/h 16.1 km/h 97% 0 mm 0.00 W/m2
01:05 10.1 °C 9.7 °C 1020.5 hPa ESE 3.2 km/h 14.5 km/h 97% 0 mm 0.00 W/m2
01:10 10.1 °C 9.7 °C 1020.5 hPa Calm   14.5 km/h 97% 0 mm 0.00 W/m2
01:15 10.1 °C 9.7 °C 1020.2 hPa SE 3.2 km/h 14.5 km/h 97% 0 mm 0.00 W/m2
01:20 10.1 °C 9.7 °C 1020.2 hPa ENE 3.2 km/h 9.7 km/h 97% 0 mm 0.00 W/m2
01:25 10.1 °C 9.7 °C 1020.2 hPa ESE 6.4 km/h 14.5 km/h 97% 0 mm 0.00 W/m2
01:30 10.1 °C 9.7 °C 1020.2 hPa East 8 km/h 14.5 km/h 97% 0 mm 0.00 W/m2
01:35 10.1 °C 9.7 °C 1020.2 hPa Calm   16.1 km/h 97% 0 mm 0.00 W/m2
01:40 10.1 °C 9.6 °C 1020.2 hPa Calm   16.1 km/h 97% 0 mm 0.00 W/m2
01:50 9.9 °C 9.5 °C 1020.2 hPa ESE 6.4 km/h 17.7 km/h 97% 0 mm 0.00 W/m2
01:55 9.9 °C 9.4 °C 1020.2 hPa ESE 8 km/h 17.7 km/h 97% 0 mm 0.00 W/m2
02:00 9.8 °C 9.4 °C 1020.2 hPa East 4.8 km/h 16.1 km/h 97% 0 mm 0.00 W/m2
02:05 9.8 °C 9.4 °C 1020.2 hPa East 8 km/h 20.9 km/h 97% 0 mm 0.00 W/m2
02:10 9.8 °C 9.3 °C 1020.2 hPa ESE 4.8 km/h 22.5 km/h 97% 0 mm 0.00 W/m2
02:15 9.8 °C 9.3 °C 1020.2 hPa Calm   22.5 km/h 97% 0 mm 0.00 W/m2
02:20 9.7 °C 9.3 °C 1020.2 hPa SE 6.4 km/h 16.1 km/h 97% 0 mm 0.00 W/m2
02:25 9.7 °C 9.2 °C 1020.2 hPa Calm   14.5 km/h 97% 0 mm 0.00 W/m2
02:30 9.6 °C 9.2 °C 1020.2 hPa Calm   14.5 km/h 97% 0 mm 0.00 W/m2
02:35 9.6 °C 9.2 °C 1020.2 hPa East 4.8 km/h 14.5 km/h 97% 0 mm 0.00 W/m2
02:40 9.6 °C 9.2 °C 1020.2 hPa ESE 3.2 km/h 16.1 km/h 97% 0 mm 0.00 W/m2
02:45 9.6 °C 9.2 °C 1020.2 hPa ESE 3.2 km/h 16.1 km/h 97% 0 mm 0.00 W/m2
02:55 9.6 °C 9.2 °C 1020.5 hPa SE 8 km/h 17.7 km/h 97% 0 mm 0.00 W/m2
03:00 9.6 °C 9.2 °C 1020.2 hPa East 3.2 km/h 22.5 km/h 97% 0 mm 0.00 W/m2
03:05 9.6 °C 9.2 °C 1020.2 hPa East 12.9 km/h 22.5 km/h 97% 0 mm 0.00 W/m2
03:10 9.6 °C 9.2 °C 1020.2 hPa Calm   19.3 km/h 97% 0 mm 0.00 W/m2
03:15 9.6 °C 9.2 °C 1020.2 hPa Calm   14.5 km/h 97% 0 mm 0.00 W/m2
03:20 9.6 °C 9.2 °C 1020.2 hPa East 9.7 km/h 14.5 km/h 97% 0 mm 0.00 W/m2
03:25 9.6 °C 9.2 °C 1020.2 hPa SE 3.2 km/h 14.5 km/h 97% 0 mm 0.00 W/m2
03:30 9.6 °C 9.2 °C 1020.2 hPa Calm   11.3 km/h 97% 0 mm 0.00 W/m2
03:35 9.6 °C 9.2 °C 1020.2 hPa ESE 8 km/h 14.5 km/h 97% 0 mm 0.00 W/m2
03:40 9.6 °C 9.1 °C 1020.2 hPa ESE 8 km/h 14.5 km/h 97% 0 mm 0.00 W/m2
03:45 9.4 °C 9 °C 1019.9 hPa ESE 14.5 km/h 16.1 km/h 97% 0 mm 0.00 W/m2
03:50 9.3 °C 8.9 °C 1019.9 hPa East 8 km/h 16.1 km/h 97% 0 mm 0.00 W/m2
03:55 9.3 °C 8.8 °C 1019.9 hPa Calm   19.3 km/h 97% 0 mm 0.00 W/m2
04:00 9.2 °C 8.7 °C 1019.9 hPa East 9.7 km/h 20.9 km/h 97% 0 mm 0.00 W/m2
04:10 9.1 °C 8.7 °C 1019.9 hPa East 1.6 km/h 14.5 km/h 97% 0 mm 0.00 W/m2
04:15 9.1 °C 8.6 °C 1019.9 hPa ESE 12.9 km/h 24.1 km/h 97% 0 mm 0.00 W/m2
04:20 9 °C 8.5 °C 1019.9 hPa Calm   24.1 km/h 97% 0 mm 0.00 W/m2
04:25 9 °C 8.5 °C 1019.9 hPa East 11.3 km/h 17.7 km/h 97% 0 mm 0.00 W/m2
04:30 9 °C 8.5 °C 1019.9 hPa ESE 3.2 km/h 17.7 km/h 97% 0 mm 0.00 W/m2
04:35 9 °C 8.5 °C 1019.9 hPa ENE 3.2 km/h 14.5 km/h 97% 0 mm 0.00 W/m2
04:40 9 °C 8.5 °C 1019.9 hPa Calm   12.9 km/h 97% 0 mm 0.00 W/m2
04:45 9 °C 8.5 °C 1019.9 hPa ENE 12.9 km/h 12.9 km/h 97% 0 mm 0.00 W/m2
04:50 9 °C 8.5 °C 1019.5 hPa East 3.2 km/h 12.9 km/h 97% 0 mm 0.00 W/m2
04:55 9 °C 8.5 °C 1019.5 hPa East 3.2 km/h 14.5 km/h 97% 0 mm 0.00 W/m2
05:00 9 °C 8.5 °C 1019.5 hPa Calm   14.5 km/h 97% 0 mm 0.00 W/m2
05:05 8.9 °C 8.5 °C 1019.5 hPa Calm   14.5 km/h 97% 0 mm 0.00 W/m2
05:10 9 °C 8.5 °C 1019.5 hPa East 1.6 km/h 14.5 km/h 97% 0 mm 0.00 W/m2
05:20 8.9 °C 8.5 °C 1019.5 hPa Calm   14.5 km/h 97% 0 mm 0.00 W/m2
05:25 8.9 °C 8.5 °C 1019.5 hPa East 4.8 km/h 12.9 km/h 97% 0 mm 0.00 W/m2
05:30 8.9 °C 8.5 °C 1019.5 hPa Calm   19.3 km/h 97% 0 mm 0.00 W/m2
05:35 8.9 °C 8.4 °C 1019.5 hPa Calm   19.3 km/h 97% 0 mm 0.00 W/m2
05:40 8.9 °C 8.4 °C 1019.5 hPa East 9.7 km/h 17.7 km/h 97% 0 mm 0.00 W/m2
05:45 8.8 °C 8.4 °C 1019.5 hPa ENE 14.5 km/h 17.7 km/h 97% 0 mm 0.00 W/m2
05:50 8.8 °C 8.4 °C 1019.5 hPa East 9.7 km/h 16.1 km/h 97% 0 mm 0.00 W/m2
05:55 8.8 °C 8.4 °C 1019.5 hPa East 14.5 km/h 17.7 km/h 97% 0 mm 0.00 W/m2
06:00 8.8 °C 8.3 °C 1019.2 hPa East 4.8 km/h 17.7 km/h 97% 0 mm 0.00 W/m2
06:05 8.8 °C 8.3 °C 1019.2 hPa East 4.8 km/h 16.1 km/h 97% 0 mm 0.00 W/m2
06:10 8.7 °C 8.3 °C 1019.2 hPa NE 8 km/h 20.9 km/h 97% 0 mm 0.00 W/m2
06:15 8.7 °C 8.3 °C 1019.2 hPa ESE 8 km/h 22.5 km/h 97% 0 mm 0.00 W/m2
06:20 8.7 °C 8.3 °C 1019.2 hPa Calm   22.5 km/h 97% 0 mm 0.00 W/m2
06:25 8.7 °C 8.3 °C 1019.2 hPa East 4.8 km/h 17.7 km/h 97% 0 mm 0.00 W/m2
06:30 8.7 °C 8.3 °C 1019.2 hPa East 8 km/h 14.5 km/h 97% 0 mm 0.00 W/m2
06:35 8.7 °C 8.3 °C 1019.2 hPa East 9.7 km/h 16.1 km/h 97% 0 mm 0.00 W/m2
06:40 8.7 °C 8.3 °C 1019.2 hPa East 20.9 km/h 22.5 km/h 97% 0 mm 0.00 W/m2
06:45 8.7 °C 8.2 °C 1019.2 hPa East 12.9 km/h 22.5 km/h 97% 0 mm 0.00 W/m2
06:50 8.6 °C 8.2 °C 1019.2 hPa East 9.7 km/h 20.9 km/h 97% 0 mm 0.00 W/m2
06:55 8.6 °C 8.1 °C 1019.2 hPa ESE 3.2 km/h 20.9 km/h 97% 0 mm 0.00 W/m2
07:00 8.5 °C 8.1 °C 1019.2 hPa ESE 8 km/h 20.9 km/h 97% 0 mm 0.00 W/m2
07:05 8.5 °C 8.1 °C 1019.2 hPa Calm   22.5 km/h 97% 0 mm 0.00 W/m2
07:10 8.4 °C 8 °C 1019.2 hPa SE 6.4 km/h 22.5 km/h 97% 0 mm 0.00 W/m2
07:15 8.4 °C 8 °C 1019.2 hPa SE 4.8 km/h 20.9 km/h 97% 0 mm 0.00 W/m2
07:20 8.4 °C 7.9 °C 1019.2 hPa East 8 km/h 20.9 km/h 97% 0 mm 0.00 W/m2
07:25 8.3 °C 7.9 °C 1019.2 hPa East 3.2 km/h 20.9 km/h 97% 0 mm 0.00 W/m2
07:30 8.3 °C 7.9 °C 1019.2 hPa Calm   20.9 km/h 97% 0 mm 0.00 W/m2
07:35 8.3 °C 7.8 °C 1019.5 hPa ESE 17.7 km/h 20.9 km/h 97% 0 mm 0.00 W/m2
07:40 8.3 °C 7.8 °C 1019.5 hPa ESE 8 km/h 20.9 km/h 97% 0 mm 0.00 W/m2
07:45 8.3 °C 7.8 °C 1019.5 hPa ESE 3.2 km/h 20.9 km/h 97% 0 mm 0.00 W/m2
07:50 8.2 °C 7.8 °C 1019.5 hPa Calm   14.5 km/h 97% 0 mm 0.00 W/m2
07:55 8.2 °C 7.8 °C 1019.5 hPa Calm   14.5 km/h 97% 0 mm 0.00 W/m2
08:00 8.3 °C 7.8 °C 1019.5 hPa East 3.2 km/h 20.9 km/h 97% 0 mm 0.00 W/m2
08:05 8.3 °C 8 °C 1019.5 hPa ENE 1.6 km/h 20.9 km/h 98% 0 mm 0.00 W/m2
08:10 8.3 °C 8 °C 1019.5 hPa East 6.4 km/h 17.7 km/h 98% 0 mm 0.00 W/m2
08:15 8.3 °C 8 °C 1019.5 hPa ENE 3.2 km/h 17.7 km/h 98% 0 mm 0.00 W/m2
08:20 8.3 °C 8 °C 1019.5 hPa Calm   17.7 km/h 98% 0 mm 0.00 W/m2
08:25 8.3 °C 8 °C 1019.5 hPa Calm   12.9 km/h 98% 0 mm 0.00 W/m2
08:30 8.3 °C 7.9 °C 1019.5 hPa East 3.2 km/h 14.5 km/h 97% 0 mm 0.00 W/m2
08:35 8.3 °C 8 °C 1019.5 hPa East 14.5 km/h 16.1 km/h 98% 0 mm 0.00 W/m2
08:40 8.2 °C 7.8 °C 1019.5 hPa NE 4.8 km/h 17.7 km/h 97% 0 mm 5.00 W/m2
08:45 8.2 °C 7.7 °C 1019.9 hPa ESE 11.3 km/h 22.5 km/h 97% 0 mm 9.00 W/m2
08:50 8.1 °C 7.7 °C 1019.9 hPa ENE 12.9 km/h 22.5 km/h 97% 0 mm 12.00 W/m2
08:55 8.1 °C 7.6 °C 1019.9 hPa East 8 km/h 19.3 km/h 97% 0 mm 14.00 W/m2
09:00 8.1 °C 7.6 °C 1019.9 hPa NNE 3.2 km/h 19.3 km/h 97% 0 mm 14.00 W/m2
09:05 8.1 °C 7.6 °C 1019.9 hPa SE 3.2 km/h 19.3 km/h 97% 0 mm 14.00 W/m2
09:10 8.1 °C 7.7 °C 1019.9 hPa ENE 6.4 km/h 17.7 km/h 97% 0 mm 16.00 W/m2
09:15 8.1 °C 7.7 °C 1019.5 hPa East 11.3 km/h 17.7 km/h 97% 0 mm 18.00 W/m2
09:20 8.1 °C 7.6 °C 1019.5 hPa East 8 km/h 17.7 km/h 97% 0 mm 19.00 W/m2
09:25 8.1 °C 7.6 °C 1019.9 hPa East 1.6 km/h 17.7 km/h 97% 0 mm 23.00 W/m2
09:30 8 °C 7.6 °C 1019.9 hPa East 1.6 km/h 17.7 km/h 97% 0 mm 28.00 W/m2
09:35 7.9 °C 7.5 °C 1019.9 hPa East 4.8 km/h 19.3 km/h 97% 0 mm 32.00 W/m2
09:45 7.9 °C 7.4 °C 1019.9 hPa ESE 1.6 km/h 17.7 km/h 97% 0 mm 37.00 W/m2
09:50 7.9 °C 7.6 °C 1019.9 hPa NE 3.2 km/h 12.9 km/h 98% 0 mm 44.00 W/m2
09:55 7.9 °C 7.6 °C 1019.9 hPa ENE 14.5 km/h 19.3 km/h 98% 0 mm 44.00 W/m2
10:00 7.9 °C 7.6 °C 1019.9 hPa SE 4.8 km/h 19.3 km/h 98% 0 mm 44.00 W/m2
10:05 7.9 °C 7.6 °C 1019.9 hPa Calm   20.9 km/h 98% 0 mm 47.00 W/m2
10:10 7.9 °C 7.6 °C 1019.9 hPa East 4.8 km/h 20.9 km/h 98% 0 mm 49.00 W/m2
10:15 7.9 °C 7.6 °C 1019.9 hPa ESE 1.6 km/h 16.1 km/h 98% 0 mm 46.00 W/m2
10:20 7.9 °C 7.6 °C 1019.9 hPa ENE 4.8 km/h 14.5 km/h 98% 0 mm 51.00 W/m2
10:25 7.9 °C 7.6 °C 1019.9 hPa East 4.8 km/h 16.1 km/h 98% 0 mm 56.00 W/m2
10:30 7.9 °C 7.6 °C 1019.9 hPa East 8 km/h 16.1 km/h 98% 0 mm 53.00 W/m2
10:35 7.9 °C 7.6 °C 1019.9 hPa East 4.8 km/h 12.9 km/h 98% 0 mm 51.00 W/m2
10:40 7.9 °C 7.6 °C 1019.9 hPa ENE 11.3 km/h 14.5 km/h 98% 0 mm 54.00 W/m2
10:45 7.9 °C 7.6 °C 1019.9 hPa East 4.8 km/h 14.5 km/h 98% 0 mm 56.00 W/m2
10:50 7.9 °C 7.6 °C 1019.9 hPa ESE 4.8 km/h 16.1 km/h 98% 0 mm 56.00 W/m2
10:55 7.9 °C 7.4 °C 1019.9 hPa Calm   16.1 km/h 97% 0 mm 69.00 W/m2
11:00 7.9 °C 7.6 °C 1019.9 hPa ESE 3.2 km/h 14.5 km/h 98% 0 mm 70.00 W/m2
11:05 8 °C 7.7 °C 1019.9 hPa ENE 4.8 km/h 14.5 km/h 98% 0 mm 58.00 W/m2
11:10 8 °C 7.7 °C 1019.5 hPa Calm   14.5 km/h 98% 0 mm 58.00 W/m2
11:15 8 °C 7.7 °C 1019.5 hPa East 4.8 km/h 14.5 km/h 98% 0 mm 69.00 W/m2
11:20 8 °C 7.7 °C 1019.5 hPa East 8 km/h 17.7 km/h 98% 0 mm 70.00 W/m2
11:25 7.9 °C 7.6 °C 1019.5 hPa ENE 4.8 km/h 17.7 km/h 98% 0 mm 72.00 W/m2
11:30 7.9 °C 7.6 °C 1019.5 hPa ENE 12.9 km/h 16.1 km/h 98% 0 mm 72.00 W/m2
11:35 7.9 °C 7.6 °C 1019.5 hPa East 12.9 km/h 16.1 km/h 98% 0 mm 74.00 W/m2
11:40 7.9 °C 7.6 °C 1019.5 hPa ESE 4.8 km/h 17.7 km/h 98% 0 mm 77.00 W/m2
11:45 7.8 °C 7.5 °C 1019.5 hPa ENE 8 km/h 22.5 km/h 98% 0 mm 77.00 W/m2
11:50 7.8 °C 7.5 °C 1019.5 hPa ENE 4.8 km/h 22.5 km/h 98% 0 mm 81.00 W/m2
11:55 7.8 °C 7.4 °C 1019.5 hPa East 17.7 km/h 19.3 km/h 97% 0 mm 76.00 W/m2
12:00 7.8 °C 7.4 °C 1019.2 hPa East 8 km/h 19.3 km/h 97% 0 mm 84.00 W/m2
12:05 7.8 °C 7.4 °C 1019.2 hPa ENE 11.3 km/h 16.1 km/h 97% 0 mm 88.00 W/m2
12:10 7.8 °C 7.4 °C 1019.2 hPa ESE 11.3 km/h 19.3 km/h 97% 0 mm 81.00 W/m2
12:15 7.8 °C 7.4 °C 1019.2 hPa ENE 8 km/h 19.3 km/h 97% 0 mm 74.00 W/m2
12:20 7.8 °C 7.3 °C 1019.2 hPa Calm   24.1 km/h 97% 0 mm 84.00 W/m2
12:25 7.8 °C 7.3 °C 1018.8 hPa East 8 km/h 24.1 km/h 97% 0 mm 83.00 W/m2
12:35 7.8 °C 7.3 °C 1018.8 hPa ENE 6.4 km/h 20.9 km/h 97% 0 mm 70.00 W/m2
12:40 7.8 °C 7.3 °C 1018.8 hPa East 11.3 km/h 20.9 km/h 97% 0 mm 81.00 W/m2
12:45 7.8 °C 7.3 °C 1018.8 hPa ENE 11.3 km/h 20.9 km/h 97% 0 mm 81.00 W/m2
12:55 7.6 °C 7.1 °C 1018.8 hPa East 8 km/h 24.1 km/h 97% 0 mm 98.00 W/m2
13:00 7.6 °C 7.1 °C 1018.8 hPa ESE 6.4 km/h 22.5 km/h 97% 0 mm 88.00 W/m2
13:05 7.5 °C 7.1 °C 1018.8 hPa ENE 4.8 km/h 16.1 km/h 97% 0 mm 88.00 W/m2
13:10 7.5 °C 7.1 °C 1018.8 hPa East 8 km/h 16.1 km/h 97% 0 mm 84.00 W/m2
13:15 7.5 °C 7.2 °C 1018.8 hPa East 11.3 km/h 16.1 km/h 98% 0 mm 77.00 W/m2
13:20 7.6 °C 7.3 °C 1018.8 hPa ENE 1.6 km/h 16.1 km/h 98% 0 mm 81.00 W/m2
13:25 7.6 °C 7.3 °C 1018.8 hPa East 8 km/h 16.1 km/h 98% 0 mm 70.00 W/m2
13:30 7.6 °C 7.1 °C 1018.8 hPa NE 8 km/h 24.1 km/h 97% 0 mm 62.00 W/m2
13:35 7.5 °C 7.1 °C 1018.8 hPa East 12.9 km/h 24.1 km/h 97% 0 mm 72.00 W/m2
13:40 7.4 °C 7 °C 1018.8 hPa East 17.7 km/h 22.5 km/h 97% 0 mm 67.00 W/m2
13:45 7.3 °C 6.9 °C 1018.8 hPa NE 16.1 km/h 24.1 km/h 97% 0 mm 72.00 W/m2
13:50 7.2 °C 6.8 °C 1018.8 hPa ESE 12.9 km/h 24.1 km/h 97% 0 mm 67.00 W/m2
13:55 7.2 °C 6.7 °C 1018.5 hPa ESE 12.9 km/h 24.1 km/h 97% 0 mm 65.00 W/m2
14:05 7.1 °C 6.6 °C 1018.5 hPa East 4.8 km/h 20.9 km/h 97% 0 mm 67.00 W/m2
14:10 7.1 °C 6.6 °C 1018.5 hPa ENE 6.4 km/h 19.3 km/h 97% 0 mm 65.00 W/m2
14:15 7.1 °C 6.7 °C 1018.5 hPa ESE 4.8 km/h 17.7 km/h 97% 0 mm 62.00 W/m2
14:20 7.1 °C 6.7 °C 1018.5 hPa ENE 11.3 km/h 17.7 km/h 97% 0 mm 65.00 W/m2
14:25 7.1 °C 6.6 °C 1018.2 hPa East 8 km/h 19.3 km/h 97% 0 mm 65.00 W/m2
14:30 7.1 °C 6.6 °C 1018.2 hPa NE 16.1 km/h 24.1 km/h 97% 0 mm 70.00 W/m2